TimeEDT,TemperatureF,Dew PointF,Humidity,Sea Level PressureIn,VisibilityMPH,Wind Direction,Wind SpeedMPH,Gust SpeedMPH,PrecipitationIn,Events,Conditions,WindDirDegrees,DateUTC
12:15 AM,68.0,66.2,94,30.12,10.0,South,3.5,-,N/A,,Unknown,170,2013-05-20 04:15:00
12:35 AM,68.0,66.2,94,30.11,10.0,Calm,Calm,-,N/A,,Unknown,0,2013-05-20 04:35:00
12:55 AM,66.2,66.2,100,30.11,6.0,Calm,Calm,-,N/A,,Unknown,0,2013-05-20 04:55:00
1:15 AM,66.2,64.4,94,30.10,4.0,SSE,4.6,-,N/A,,Unknown,150,2013-05-20 05:15:00
1:35 AM,66.2,66.2,100,30.09,5.0,SSE,4.6,-,N/A,,Unknown,150,2013-05-20 05:35:00
1:55 AM,66.2,64.4,94,30.09,5.0,Calm,Calm,-,N/A,,Unknown,0,2013-05-20 05:55:00
2:15 AM,66.2,66.2,100,30.08,5.0,Calm,Calm,-,N/A,,Unknown,0,2013-05-20 06:15:00
2:35 AM,66.2,66.2,100,30.08,5.0,Calm,Calm,-,N/A,,Unknown,0,2013-05-20 06:35:00
2:55 AM,64.4,64.4,100,30.07,2.0,South,3.5,-,N/A,,Unknown,170,2013-05-20 06:55:00
3:15 AM,66.2,66.2,100,30.08,6.0,Calm,Calm,-,N/A,,Unknown,0,2013-05-20 07:15:00
3:35 AM,66.2,66.2,100,30.07,5.0,Calm,Calm,-,N/A,,Unknown,0,2013-05-20 07:35:00
3:55 AM,66.2,66.2,100,30.08,5.0,Calm,Calm,-,N/A,,Unknown,0,2013-05-20 07:55:00
4:15 AM,66.2,66.2,100,30.08,7.0,Calm,Calm,-,N/A,,Unknown,0,2013-05-20 08:15:00
4:35 AM,66.2,66.2,100,30.08,8.0,Calm,Calm,-,N/A,,Unknown,0,2013-05-20 08:35:00
4:55 AM,66.2,66.2,100,30.08,8.0,SE,4.6,-,N/A,,Unknown,140,2013-05-20 08:55:00
5:15 AM,66.2,66.2,100,30.08,8.0,SSE,3.5,-,N/A,,Unknown,160,2013-05-20 09:15:00
5:35 AM,66.2,66.2,100,30.08,5.0,SSE,3.5,-,N/A,,Unknown,160,2013-05-20 09:35:00
5:55 AM,66.2,66.2,100,30.08,3.0,South,3.5,-,N/A,,Unknown,170,2013-05-20 09:55:00
6:15 AM,66.2,66.2,100,30.08,2.0,SE,3.5,-,N/A,,Unknown,140,2013-05-20 10:15:00
6:25 AM,66.2,66.2,100,30.08,2.0,SSE,4.6,-,N/A,,Overcast,150,2013-05-20 10:25:00
7:50 AM,66.2,64.4,94,30.10,2.0,South,4.6,-,N/A,,Overcast,180,2013-05-20 11:50:00
8:50 AM,68.0,66.2,94,30.11,1.5,SSW,4.6,-,N/A,,Overcast,200,2013-05-20 12:50:00
10:45 AM,71.6,69.8,94,30.10,10.0,South,9.2,-,N/A,,Overcast,170,2013-05-20 14:45:00
11:45 AM,73.4,68.0,83,30.09,10.0,SW,6.9,-,N/A,,Overcast,230,2013-05-20 15:45:00
1:45 PM,78.8,69.8,74,30.06,10.0,SW,10.4,-,N/A,,Overcast,220,2013-05-20 17:45:00
3:55 PM,80.6,68.0,65,30.01,10.0,South,10.4,-,N/A,,Scattered Clouds,190,2013-05-20 19:55:00
4:50 PM,80.6,68.0,65,29.99,10.0,South,6.9,-,N/A,,Scattered Clouds,170,2013-05-20 20:50:00
6:15 PM,80.6,68.0,65,30.00,10.0,SW,5.8,-,N/A,,Unknown,230,2013-05-20 22:15:00
6:35 PM,78.8,68.0,69,30.00,10.0,SW,4.6,-,N/A,,Unknown,220,2013-05-20 22:35:00
6:55 PM,80.6,66.2,61,30.00,10.0,SSW,4.6,-,N/A,,Unknown,200,2013-05-20 22:55:00
7:15 PM,80.6,68.0,65,30.00,10.0,SSW,4.6,-,N/A,,Unknown,200,2013-05-20 23:15:00
7:35 PM,78.8,69.8,74,29.99,10.0,South,4.6,-,N/A,,Unknown,170,2013-05-20 23:35:00
7:55 PM,75.2,69.8,83,29.99,10.0,South,6.9,-,N/A,,Unknown,170,2013-05-20 23:55:00
8:15 PM,75.2,69.8,83,29.99,10.0,South,4.6,-,N/A,,Unknown,190,2013-05-21 00:15:00
8:35 PM,75.2,69.8,83,29.99,10.0,South,3.5,-,N/A,,Unknown,180,2013-05-21 00:35:00
8:55 PM,71.6,69.8,94,29.99,10.0,Calm,Calm,-,N/A,,Unknown,0,2013-05-21 00:55:00
9:15 PM,71.6,69.8,94,30.00,10.0,Calm,Calm,-,N/A,,Unknown,0,2013-05-21 01:15:00
9:35 PM,71.6,69.8,94,30.01,10.0,SE,3.5,-,N/A,,Unknown,130,2013-05-21 01:35:00
10:15 PM,69.8,68.0,94,30.01,10.0,SSE,3.5,-,N/A,,Unknown,160,2013-05-21 02:15:00
10:35 PM,68.0,66.2,94,30.01,10.0,South,3.5,-,N/A,,Unknown,170,2013-05-21 02:35:00
10:55 PM,68.0,66.2,94,30.00,10.0,SSE,5.8,-,N/A,,Unknown,160,2013-05-21 02:55:00
11:15 PM,66.2,64.4,94,30.00,10.0,South,3.5,-,N/A,,Unknown,190,2013-05-21 03:15:00
11:35 PM,69.8,68.0,94,30.00,10.0,SSW,3.5,-,N/A,,Unknown,210,2013-05-21 03:35:00
11:55 PM,69.8,66.2,88,30.00,10.0,South,3.5,-,N/A,,Unknown,180,2013-05-21 03:55:00